Location: Lac Lasalle
(46.0398°N, 74.1576°W)
Time: 18:52:24
(UTC-04:00)

ISS - Pass Details

Date: 29 March 2019
Orbit: 408 x 410 km, 51.6° (Epoch: 18 April)

Event Time Altitude Azimuth Distance (km) Brightness Sun altitude
Rises 21:16:27 0° 291° (WNW) 2,338 1.6 -19.9°
Reaches altitude 10° 21:18:42 10° 302° (WNW) 1,476 0.2 -20.2°
Maximum altitude 21:21:42 31° 7° (N) 744 -2.4 -20.7°
Enters shadow 21:22:01 30° 20° (NNE) 757 -2.4 -20.7°
